User: anonymous   Login
Location: Unspecified
(0.0000°N, 0.0000°E)
Time: 20:23:19
(UTC+00:00)
Language:

STARLINK-32600 - Orbit

View from above orbital plane
View from above orbital plane
View from above satellite
View from above satellite

Ground track
Ground track

The orbit is defined by the following mean orbital elements,

1 62178U          26145.20676308 +.00000000 +00000-0 +38209-3 0 00002
2 62178  70.0016 321.6358 0002879 264.0776  96.0055 14.98336432    04
Epoch (UTC): 25 May 2026 04:57:44
Eccentricity: 0.0002879
inclination: 70.0016°
perigee height: 570 km
apogee height: 574 km
right ascension of ascending node: 321.6358°
argument of perigee: 264.0776°
revolutions per day: 14.98336432
mean anomaly at epoch: 96.0055°

The dashed part of the orbit path shows where the satellite is in the earth's shadow,  

DLR